When you browse on this site, cookies collect data to enhance your experience and personalize the content and advertising you see.
Visit our Privacy Policy to learn more. By continuing to use the site, you agree to this use of cookies and data.
  • In Österreich
  • Länderverzeichnis
  • Für 7 Tage
  • Wassertemperatur
  • Satellitenkarten
  • Wetterkarte
  • News
  • Widgets
  • user-avatar
    Anmelden

    Stündliche Wetter Nachiczewan

    Heute, 21 Mai, Dienstag

    Zeit Temperatur Niederschläge Wind Luftdruck Luftfeuchtigkeit
    00:00 +23°C° 0.1 mm 2 m/S 687 mmHg 40%
    01:00 +23°C° 0.1 mm 1 m/S 687 mmHg 43%
    02:00 +22°C° 0.1 mm 1 m/S 687 mmHg 45%
    03:00 +22°C° 0.1 mm 1 m/S 687 mmHg 47%
    04:00 +22°C° 0.1 mm 1 m/S 688 mmHg 48%
    05:00 +21°C° 0.1 mm 1 m/S 688 mmHg 48%
    06:00 +20°C° 0.1 mm 2 m/S 688 mmHg 49%
    07:00 +21°C° 0.1 mm 2 m/S 688 mmHg 46%
    08:00 +23°C° 0.1 mm 2 m/S 688 mmHg 43%
    09:00 +23°C° 0.1 mm 2 m/S 689 mmHg 40%
    10:00 +24°C° 0 mm 2 m/S 689 mmHg 37%
    11:00 +25°C° 0 mm 2 m/S 689 mmHg 34%
    12:00 +26°C° 0 mm 2 m/S 689 mmHg 31%
    13:00 +27°C° 0 mm 2 m/S 689 mmHg 30%
    14:00 +27°C° 0 mm 3 m/S 689 mmHg 29%
    15:00 +28°C° 0 mm 4 m/S 689 mmHg 28%
    16:00 +27°C° 0 mm 4 m/S 689 mmHg 29%
    17:00 +27°C° 0 mm 4 m/S 689 mmHg 30%
    18:00 +27°C° 0 mm 5 m/S 689 mmHg 31%
    19:00 +25°C° 0 mm 4 m/S 690 mmHg 35%
    20:00 +23°C° 0 mm 4 m/S 690 mmHg 38%
    21:00 +22°C° 0 mm 3 m/S 690 mmHg 42%
    22:00 +21°C° 0 mm 3 m/S 690 mmHg 44%
    23:00 +21°C° 0 mm 2 m/S 690 mmHg 46%

    Morgen, 22 Mai, Mittwoch

    Zeit Temperatur Niederschläge Wind Luftdruck Luftfeuchtigkeit
    00:00 +20°C° 0 mm 2 m/S 690 mmHg 48%
    01:00 +20°C° 0 mm 2 m/S 690 mmHg 50%
    02:00 +20°C° 0 mm 1 m/S 690 mmHg 52%
    03:00 +19°C° 0 mm 1 m/S 690 mmHg 54%
    04:00 +20°C° 0 mm 1 m/S 690 mmHg 53%
    05:00 +20°C° 0 mm 1 m/S 690 mmHg 51%
    06:00 +20°C° 0 mm 1 m/S 690 mmHg 50%
    07:00 +21°C° 0 mm 1 m/S 690 mmHg 46%
    08:00 +22°C° 0 mm 1 m/S 690 mmHg 42%
    09:00 +23°C° 0 mm 1 m/S 690 mmHg 38%
    10:00 +25°C° 0 mm 1 m/S 689 mmHg 35%
    11:00 +26°C° 0 mm 2 m/S 689 mmHg 32%
    12:00 +27°C° 0 mm 2 m/S 689 mmHg 29%
    13:00 +28°C° 0.4 mm 2 m/S 688 mmHg 29%
    14:00 +28°C° 0.4 mm 2 m/S 688 mmHg 28%
    15:00 +29°C° 0.4 mm 2 m/S 687 mmHg 28%
    16:00 +28°C° 1.1 mm 2 m/S 687 mmHg 31%
    17:00 +27°C° 1.1 mm 2 m/S 687 mmHg 34%
    18:00 +26°C° 1.1 mm 2 m/S 687 mmHg 37%
    19:00 +25°C° 0.9 mm 2 m/S 687 mmHg 41%
    20:00 +25°C° 0.9 mm 1 m/S 688 mmHg 45%
    21:00 +24°C° 0.9 mm 1 m/S 688 mmHg 50%
    22:00 +23°C° 0.4 mm 1 m/S 688 mmHg 50%
    23:00 +23°C° 0.4 mm 1 m/S 688 mmHg 51%

    übermorgen, 23 Mai, Donnerstag

    Zeit Temperatur Niederschläge Wind Luftdruck Luftfeuchtigkeit
    00:00 +23°C° 0.4 mm 1 m/S 688 mmHg 52%
    01:00 +22°C° 0 mm 1 m/S 688 mmHg 54%
    02:00 +21°C° 0 mm 1 m/S 688 mmHg 57%
    03:00 +21°C° 0 mm 1 m/S 687 mmHg 60%
    04:00 +21°C° 0 mm 1 m/S 687 mmHg 58%
    05:00 +21°C° 0 mm 1 m/S 687 mmHg 56%
    06:00 +21°C° 0 mm 1 m/S 687 mmHg 54%
    07:00 +22°C° 0 mm 1 m/S 687 mmHg 48%
    08:00 +23°C° 0 mm 1 m/S 687 mmHg 43%
    09:00 +24°C° 0 mm 1 m/S 687 mmHg 37%
    10:00 +25°C° 0 mm 1 m/S 687 mmHg 35%
    11:00 +26°C° 0 mm 1 m/S 687 mmHg 32%
    12:00 +27°C° 0 mm 2 m/S 686 mmHg 30%
    13:00 +28°C° 0 mm 2 m/S 686 mmHg 28%
    14:00 +29°C° 0 mm 2 m/S 686 mmHg 27%
    15:00 +29°C° 0 mm 3 m/S 685 mmHg 25%
    16:00 +29°C° 0 mm 3 m/S 686 mmHg 25%
    17:00 +29°C° 0 mm 3 m/S 686 mmHg 25%
    18:00 +28°C° 0 mm 4 m/S 686 mmHg 25%
    19:00 +27°C° 0 mm 3 m/S 686 mmHg 27%
    20:00 +26°C° 0 mm 2 m/S 687 mmHg 29%
    21:00 +25°C° 0 mm 1 m/S 687 mmHg 31%
    22:00 +25°C° 0 mm 1 m/S 687 mmHg 33%
    23:00 +24°C° 0 mm 1 m/S 687 mmHg 35%

    24 Mai, Freitag

    Zeit Temperatur Niederschläge Wind Luftdruck Luftfeuchtigkeit
    00:00 +23°C° 0 mm 1 m/S 687 mmHg 38%
    01:00 +23°C° 0 mm 1 m/S 687 mmHg 39%
    02:00 +22°C° 0 mm 1 m/S 687 mmHg 41%
    03:00 +21°C° 0 mm 1 m/S 687 mmHg 43%
    04:00 +21°C° 0 mm 1 m/S 688 mmHg 42%
    05:00 +21°C° 0 mm 1 m/S 688 mmHg 41%
    06:00 +22°C° 0 mm 1 m/S 688 mmHg 41%
    07:00 +23°C° 0 mm 1 m/S 688 mmHg 37%
    08:00 +24°C° 0 mm 1 m/S 688 mmHg 33%
    09:00 +25°C° 0 mm 1 m/S 688 mmHg 29%
    10:00 +26°C° 0 mm 1 m/S 688 mmHg 28%
    11:00 +27°C° 0 mm 1 m/S 688 mmHg 27%
    12:00 +28°C° 0 mm 2 m/S 688 mmHg 27%
    13:00 +29°C° 0 mm 2 m/S 688 mmHg 27%
    14:00 +29°C° 0 mm 2 m/S 688 mmHg 26%
    15:00 +30°C° 0 mm 3 m/S 688 mmHg 26%
    16:00 +30°C° 0 mm 2 m/S 688 mmHg 26%
    17:00 +30°C° 0 mm 2 m/S 688 mmHg 26%
    18:00 +30°C° 0 mm 2 m/S 689 mmHg 26%
    19:00 +29°C° 0 mm 2 m/S 689 mmHg 29%
    20:00 +28°C° 0 mm 1 m/S 689 mmHg 31%
    21:00 +26°C° 0 mm 1 m/S 689 mmHg 34%
    22:00 +26°C° 0 mm 1 m/S 689 mmHg 36%
    23:00 +25°C° 0 mm 1 m/S 689 mmHg 37%

    25 Mai, Samstag

    Zeit Temperatur Niederschläge Wind Luftdruck Luftfeuchtigkeit
    00:00 +25°C° 0 mm 1 m/S 689 mmHg 39%
    01:00 +24°C° 0 mm 1 m/S 689 mmHg 40%
    02:00 +24°C° 0 mm 1 m/S 689 mmHg 41%
    03:00 +23°C° 0 mm 1 m/S 689 mmHg 42%
    04:00 +23°C° 0.1 mm 1 m/S 689 mmHg 41%
    05:00 +24°C° 0.1 mm 1 m/S 689 mmHg 40%
    06:00 +24°C° 0.1 mm 1 m/S 690 mmHg 40%
    07:00 +26°C° 0 mm 1 m/S 690 mmHg 36%
    08:00 +27°C° 0 mm 1 m/S 690 mmHg 33%
    09:00 +28°C° 0 mm 1 m/S 690 mmHg 30%
    10:00 +29°C° 0 mm 1 m/S 690 mmHg 28%
    11:00 +31°C° 0 mm 1 m/S 689 mmHg 26%
    12:00 +32°C° 0 mm 2 m/S 689 mmHg 24%
    13:00 +34°C° 0.1 mm 2 m/S 689 mmHg 22%
    14:00 +35°C° 0.1 mm 2 m/S 689 mmHg 20%
    15:00 +36°C° 0.1 mm 2 m/S 689 mmHg 19%
    16:00 +35°C° 0 mm 2 m/S 689 mmHg 18%
    17:00 +35°C° 0 mm 2 m/S 689 mmHg 18%
    18:00 +35°C° 0 mm 2 m/S 689 mmHg 18%
    19:00 +34°C° 0 mm 2 m/S 689 mmHg 21%
    20:00 +31°C° 0 mm 2 m/S 689 mmHg 23%
    21:00 +29°C° 0 mm 2 m/S 689 mmHg 26%
    22:00 +29°C° 0 mm 2 m/S 688 mmHg 27%
    23:00 +28°C° 0 mm 2 m/S 688 mmHg 29%

    26 Mai, Sonntag

    Zeit Temperatur Niederschläge Wind Luftdruck Luftfeuchtigkeit
    00:00 +27°C° 0 mm 2 m/S 688 mmHg 30%
    01:00 +26°C° 0 mm 2 m/S 687 mmHg 31%
    02:00 +26°C° 0 mm 2 m/S 687 mmHg 32%
    03:00 +25°C° 0 mm 1 m/S 687 mmHg 33%
    04:00 +26°C° 0 mm 1 m/S 687 mmHg 33%
    05:00 +26°C° 0 mm 1 m/S 687 mmHg 32%
    06:00 +27°C° 0 mm 1 m/S 688 mmHg 32%
    07:00 +28°C° 0 mm 2 m/S 687 mmHg 28%
    08:00 +30°C° 0 mm 2 m/S 687 mmHg 24%
    09:00 +33°C° 0 mm 3 m/S 687 mmHg 20%
    10:00 +35°C° 0 mm 3 m/S 687 mmHg 17%
    11:00 +37°C° 0 mm 4 m/S 687 mmHg 14%
    12:00 +38°C° 0 mm 4 m/S 687 mmHg 11%
    13:00 +39°C° 0 mm 5 m/S 687 mmHg 11%
    14:00 +40°C° 0 mm 6 m/S 687 mmHg 11%
    15:00 +40°C° 0 mm 7 m/S 687 mmHg 10%
    16:00 +39°C° 0.1 mm 7 m/S 687 mmHg 11%
    17:00 +38°C° 0.1 mm 6 m/S 687 mmHg 12%
    18:00 +36°C° 0.1 mm 6 m/S 687 mmHg 12%
    19:00 +34°C° 0.1 mm 5 m/S 687 mmHg 16%
    20:00 +31°C° 0.1 mm 3 m/S 687 mmHg 19%
    21:00 +28°C° 0.1 mm 1 m/S 688 mmHg 22%
    22:00 +27°C° 0 mm 1 m/S 688 mmHg 24%
    23:00 +26°C° 0 mm 1 m/S 688 mmHg 25%
    Mehr zeigen